GFSNW_850_spd_099.txt.gz
Wind_Speed
14 15 15 13 13 10 10 6 3 5 6 8 4 2 5 9 22 30 20 7 7 10 14 5 10 4 1 6 15 6 6 1 1 7 10 10 8 7 9 8 5 3 7 7
15 14 12 12 9 7 7 6 11 13 7 3 3 5 14 19 19 20 12 10 5 9 9 6 8 2 3 10 8 8 6 3 1 2 11 14 2 1 3 9 6 10 3 3
15 13 12 9 7 6 6 4 4 5 7 9 3 5 6 12 19 16 18 8 11 6 7 10 5 8 4 3 3 8 6 3 5 3 3 6 7 11 8 9 4 6 6 6
15 14 12 11 9 8 6 5 4 6 4 4 8 10 10 14 7 6 15 3 6 8 9 10 7 12 10 16 5 4 5 4 6 6 9 10 12 10 3 8 12 2 5 7
17 16 16 13 10 10 10 3 4 7 8 12 8 3 4 12 14 5 8 9 8 7 8 10 10 12 8 3 7 1 3 5 7 6 5 8 14 12 9 9 10 5 5 10
18 16 14 16 13 13 10 11 18 10 7 5 5 3 12 10 18 12 8 10 11 11 7 10 21 24 4 1 5 7 2 1 3 3 7 10 6 7 10 11 8 4 5 8
17 16 16 17 19 18 19 14 7 4 4 4 6 12 16 15 13 10 12 14 2 8 13 15 18 20 6 3 4 6 3 2 1 2 5 3 6 8 7 5 4 3 8 13
18 17 17 16 16 19 21 20 14 4 3 7 11 14 13 17 14 17 14 20 13 9 10 4 4 4 4 7 8 8 6 2 1 1 1 8 9 4 4 3 6 8 8 8
19 18 17 17 17 16 19 22 20 11 4 6 18 12 10 6 4 9 12 17 11 3 3 2 2 4 5 7 5 18 12 5 4 1 3 4 0 11 12 5 2 7 8 7
20 20 19 17 17 16 18 21 19 18 8 17 18 6 9 12 6 3 6 17 7 4 2 3 3 4 3 3 4 5 11 5 9 5 3 6 2 10 12 2 2 2 1 7
21 20 20 20 20 21 21 25 22 19 10 22 27 23 22 18 15 3 10 9 3 3 1 2 3 2 3 1 3 3 8 7 4 3 3 6 4 8 2 4 7 3 9 7
22 22 22 23 23 23 22 26 24 24 25 14 9 16 21 26 26 19 13 5 4 4 3 3 3 3 3 4 4 4 5 6 5 7 6 6 9 0 9 4 12 8 15 12
24 25 25 25 23 23 24 27 23 20 22 27 35 36 33 24 24 23 9 3 2 3 13 5 2 2 2 3 3 2 1 7 1 2 3 4 8 5 8 10 8 16 11 7
27 27 26 25 24 23 24 28 28 27 8 5 18 19 21 19 23 22 15 17 12 11 10 4 2 2 2 2 3 6 1 2 3 2 8 20 13 6 4 3 16 15 12 9
28 27 26 24 22 21 23 27 36 35 26 4 6 15 22 17 18 12 23 18 16 15 4 2 2 5 4 4 2 3 2 6 1 1 2 10 9 12 11 10 10 9 8 7
26 25 24 22 20 20 17 11 27 35 40 9 3 6 8 7 17 14 16 22 19 11 3 2 4 7 4 2 3 3 12 15 12 5 12 16 10 12 14 16 10 8 8 8
25 25 23 21 20 19 14 5 2 18 31 5 2 5 5 12 13 20 21 16 14 12 4 5 3 4 4 2 2 7 13 11 14 9 12 12 23 18 20 16 11 12 10 7
24 26 24 22 18 17 20 13 1 19 22 6 2 4 1 4 3 4 14 11 13 8 7 3 3 3 4 3 8 10 11 8 13 15 15 17 12 15 13 11 11 15 4 6
28 28 24 19 18 14 18 15 10 28 8 5 4 3 3 4 6 7 5 7 2 8 4 4 3 2 3 2 12 15 18 13 13 11 11 10 11 11 12 12 11 11 11 7
33 30 13 6 14 12 15 8 16 10 7 5 3 6 2 9 6 3 5 6 3 4 6 7 4 2 15 13 14 14 15 14 12 17 16 15 14 14 13 12 11 9 3 6
32 10 5 19 27 12 7 4 5 6 3 7 9 17 4 7 2 2 3 3 4 3 4 8 4 2 4 11 14 14 10 10 10 7 6 7 9 10 10 8 8 6 3 5
20 15 29 18 6 4 4 4 4 4 5 8 5 10 9 9 6 3 4 2 2 2 9 4 3 3 10 12 13 13 12 12 11 10 9 9 10 7 5 7 6 4 4 4
35 14 7 7 4 4 4 6 3 3 1 4 8 3 8 4 4 2 2 2 3 4 2 3 3 9 11 11 12 12 12 12 10 9 9 7 8 7 3 4 3 2 2 3
5 5 5 3 4 1 2 3 2 3 4 5 13 6 3 2 2 1 2 3 1 2 2 3 3 10 9 11 10 10 10 10 10 10 10 8 6 7 4 3 2 1 1 3
5 4 3 3 4 7 4 2 3 4 2 4 5 5 4 1 3 2 2 2 1 4 2 2 8 8 8 8 9 11 10 8 7 8 9 8 7 6 5 5 4 4 6 8
6 8 3 4 5 4 6 9 6 5 3 4 4 1 2 3 3 2 4 2 3 2 3 9 7 8 8 7 8 9 9 8 7 6 8 7 7 8 10 10 10 11 13 15
4 4 14 8 10 11 8 8 9 5 2 0 1 1 2 2 3 3 4 2 3 9 10 6 6 7 5 7 9 7 8 7 7 8 8 8 7 7 7 12 12 12 13 14

GFSNW_850_spd_102.txt.gz
Wind_Speed
14 12 12 11 10 10 9 6 3 3 9 2 4 3 4 7 12 19 13 9 13 3 6 7 4 4 3 6 8 9 8 5 4 5 4 4 4 4 6 4 2 3 4 5
13 13 11 9 9 7 6 4 6 11 6 1 3 6 7 7 13 14 6 9 16 8 5 5 8 3 9 7 4 6 8 5 4 4 3 7 6 6 5 4 4 5 3 3
13 13 11 9 8 6 6 4 3 3 6 3 4 4 5 6 10 12 8 10 13 1 2 2 6 5 3 11 5 14 6 5 3 2 2 1 2 6 8 4 3 1 12 6
13 13 12 10 9 7 7 3 3 4 3 3 2 4 5 11 9 6 11 7 10 10 4 4 3 6 6 11 10 4 5 3 5 6 2 3 3 3 4 3 1 1 3 1
14 14 13 13 10 10 12 3 3 3 6 10 6 5 4 10 14 3 10 7 9 5 4 3 4 6 5 4 5 6 3 3 2 2 6 6 2 4 3 4 4 10 9 0
14 15 15 14 12 15 10 9 11 8 4 2 2 3 4 15 12 12 15 9 5 5 2 4 11 12 11 9 3 3 6 4 4 1 8 4 3 2 5 5 9 13 3 2
16 15 14 14 14 18 17 12 5 4 3 2 2 9 14 11 12 8 16 15 4 8 16 15 12 9 9 7 6 4 2 3 3 3 5 0 3 10 2 12 9 11 10 7
16 16 16 14 15 18 21 18 16 4 3 3 5 9 9 15 15 5 6 15 18 14 3 3 5 3 3 6 8 7 6 2 0 1 1 6 4 5 4 3 5 5 8 7
18 17 16 15 15 15 18 19 18 11 3 5 7 4 8 4 5 6 5 23 15 4 2 2 1 3 3 3 5 12 6 4 3 2 1 3 2 5 10 4 3 2 7 6
19 17 16 17 15 16 18 18 16 17 6 15 19 5 3 5 4 3 7 19 9 8 2 1 2 3 1 4 4 1 4 1 7 2 1 6 6 6 11 3 4 1 10 14
21 19 18 17 17 16 17 18 16 17 7 20 22 18 14 14 9 1 10 9 7 4 2 2 3 2 2 3 2 2 6 6 3 3 2 6 4 2 1 3 2 7 13 12
21 20 19 18 18 18 17 19 17 19 22 12 12 14 17 17 17 11 5 6 4 2 3 3 3 3 2 3 3 1 4 5 5 6 6 4 9 6 5 11 3 16 14 10
22 21 20 20 19 19 19 21 18 18 20 23 29 29 27 28 29 20 10 6 5 4 4 3 3 3 0 2 3 4 6 5 1 4 3 3 7 10 5 3 18 15 12 11
23 21 21 21 20 20 20 22 21 22 6 4 10 10 17 15 12 18 24 23 14 11 3 3 3 3 5 2 3 3 4 2 3 3 3 1 8 9 8 21 16 14 12 11
23 23 22 22 21 20 20 22 24 26 17 3 7 15 5 8 14 13 18 23 15 9 4 2 3 4 4 3 3 2 5 4 2 1 8 3 3 5 2 15 13 9 8 10
26 25 24 22 21 19 18 13 27 30 30 8 2 8 9 3 4 15 14 22 25 14 5 4 3 6 3 2 3 2 5 4 5 5 6 13 19 15 14 15 12 10 9 10
26 23 22 21 20 22 22 6 5 16 33 8 3 5 5 9 13 18 21 14 14 12 6 3 3 4 3 2 3 10 8 13 16 20 10 13 20 13 18 14 11 7 7 6
25 23 21 19 19 21 22 13 4 18 25 6 2 4 3 6 5 5 16 13 13 8 8 3 3 3 4 3 1 11 10 10 15 12 11 10 7 9 13 10 8 7 6 4
26 21 22 18 20 13 22 22 6 26 8 5 3 3 3 7 4 5 5 9 2 7 4 4 3 2 4 2 8 12 16 11 8 6 7 10 13 13 13 13 10 7 5 4
29 27 12 7 14 8 12 10 15 11 6 5 4 7 2 8 7 4 4 6 4 3 4 6 5 2 11 12 11 10 11 12 13 9 13 15 13 14 13 10 9 6 3 2
35 11 5 16 24 12 9 5 5 7 3 7 7 18 4 8 3 3 7 3 4 4 4 8 4 2 4 9 11 10 9 9 9 6 6 7 9 10 8 6 6 5 5 5
20 17 30 21 6 4 3 3 4 5 5 7 5 8 13 7 6 4 4 3 3 4 9 3 2 2 8 8 9 10 10 9 8 9 9 11 11 9 5 5 4 4 3 3
33 15 5 6 3 3 5 6 3 3 3 7 7 2 8 6 6 2 2 2 4 5 1 2 2 7 7 8 8 9 8 8 8 8 9 8 9 8 6 4 3 3 4 4
6 5 6 3 3 4 2 1 2 1 1 4 18 5 2 2 2 1 1 3 1 2 2 2 2 6 6 6 9 11 10 8 9 11 13 11 9 8 6 4 3 3 3 3
5 4 3 2 3 6 3 2 3 3 1 3 6 4 4 1 2 2 1 1 3 3 1 2 5 4 5 6 9 10 11 10 10 11 11 10 9 6 4 3 2 1 2 4
5 7 3 5 5 4 7 8 4 4 1 4 3 2 3 3 2 2 3 2 1 1 2 7 3 4 4 5 7 8 8 8 8 7 7 6 6 6 6 5 4 4 5 7
5 4 11 9 9 9 7 7 10 5 2 1 2 2 1 2 3 3 3 1 1 8 8 4 3 4 3 3 4 5 6 5 5 5 5 5 4 3 3 6 7 6 7 7

GFSNW_850_spd_108.txt.gz
Wind_Speed
8 6 5 4 4 4 5 3 2 8 3 3 2 2 3 7 8 11 8 8 11 8 8 5 4 7 7 22 15 8 5 4 4 7 5 2 1 4 10 5 7 2 3 5
8 9 7 5 2 3 2 1 3 2 4 1 2 4 4 5 4 4 3 5 6 10 5 4 9 5 10 13 12 4 5 3 2 1 3 5 3 2 2 5 3 6 5 4
12 10 9 6 4 5 2 1 2 2 2 1 2 3 4 4 9 5 7 8 10 9 4 3 5 9 4 12 2 13 4 3 6 3 2 8 6 6 6 4 5 7 3 4
14 13 11 8 6 7 5 3 2 1 2 2 3 3 3 4 6 4 8 4 10 10 4 5 5 5 7 11 6 5 1 5 3 7 8 5 5 8 12 4 1 6 3 2
18 16 13 11 9 9 10 4 3 2 4 6 3 3 3 4 5 3 5 6 15 11 4 4 13 11 5 5 7 6 2 2 4 6 9 5 1 3 12 5 3 4 4 6
17 17 15 15 12 13 7 11 6 2 3 2 2 3 1 4 9 8 10 11 12 7 6 15 27 25 21 12 7 4 4 1 2 2 6 9 2 6 9 4 2 4 2 4
20 18 17 16 14 15 16 10 8 5 3 4 4 3 6 9 8 9 20 18 4 9 29 27 19 19 18 14 12 9 5 3 1 2 4 6 3 4 5 4 3 4 6 10
22 21 19 17 15 16 17 17 14 5 2 6 7 10 7 12 15 6 10 16 18 21 13 4 6 4 4 4 7 6 8 2 2 1 2 4 1 3 4 4 4 3 9 11
21 22 19 18 16 17 17 18 19 10 1 6 15 4 5 3 4 5 6 20 16 12 1 2 2 2 3 3 5 5 3 0 2 2 0 1 2 4 7 1 1 1 8 12
24 22 21 20 18 18 17 18 19 17 7 16 14 5 4 5 3 3 7 11 9 11 4 2 1 2 3 2 2 1 1 2 3 2 2 5 4 8 11 1 3 6 19 19
19 21 23 19 17 18 18 18 18 22 8 22 16 10 10 7 4 2 7 9 3 5 5 3 3 3 4 4 3 2 1 0 2 1 2 6 2 5 2 3 1 12 7 10
23 20 24 21 17 17 18 18 16 18 17 13 12 14 21 26 29 20 6 6 2 3 2 2 2 2 2 6 2 2 1 3 3 5 4 4 4 5 8 12 1 11 18 16
20 21 22 23 18 17 19 18 16 18 21 22 26 29 16 21 30 29 8 7 6 3 3 2 2 4 1 3 3 4 3 4 3 2 2 4 13 7 5 5 19 18 18 16
18 21 22 21 19 18 18 19 18 16 6 4 9 10 16 13 10 17 26 29 7 3 6 3 2 3 3 3 4 6 4 7 6 3 4 2 14 14 9 17 21 19 17 17
14 22 22 19 19 16 17 17 18 18 13 3 10 27 20 12 11 16 20 26 28 18 5 4 2 4 3 3 3 2 5 5 3 2 10 4 12 14 9 16 19 11 14 17
15 22 23 17 16 16 14 8 22 24 21 6 3 7 12 8 5 9 20 18 18 13 7 5 4 7 3 3 3 10 11 12 16 4 12 16 9 18 15 17 17 12 12 13
15 22 24 19 18 20 20 7 3 11 27 5 3 5 4 4 11 8 13 14 10 10 6 5 3 10 8 2 3 7 9 11 16 21 10 13 23 12 17 16 12 8 10 10
15 21 22 19 19 20 27 29 8 6 23 6 2 4 5 6 5 6 10 9 11 7 5 3 3 3 3 3 3 7 9 7 14 13 15 12 11 14 17 13 10 7 7 7
19 21 18 17 18 18 24 23 23 23 13 4 4 2 3 3 4 5 7 9 3 7 3 3 5 3 4 3 6 9 11 9 13 6 9 13 14 13 13 13 10 8 6 5
21 19 9 9 11 15 13 8 10 11 11 8 4 5 2 6 6 3 3 6 3 3 5 7 3 3 8 7 6 6 10 10 13 14 15 18 14 13 12 10 8 6 6 7
22 12 6 10 22 13 9 7 7 7 2 7 7 16 4 7 2 2 7 1 3 2 3 4 3 2 3 5 7 8 9 10 11 9 9 11 12 12 10 8 6 6 7 7
16 9 17 21 7 5 3 4 5 4 4 6 4 6 12 4 6 4 5 3 3 4 8 3 2 2 5 5 7 8 8 9 10 10 11 11 11 11 10 11 10 8 6 6
21 7 7 6 4 4 6 5 3 4 4 7 7 3 6 7 6 5 3 4 4 11 2 2 2 6 5 7 8 9 8 8 8 9 9 10 10 10 10 8 8 8 7 6
9 7 6 4 4 4 3 1 2 3 4 7 10 4 4 5 4 2 2 2 2 2 3 2 1 5 4 5 7 9 11 11 11 10 10 10 9 9 8 7 7 6 5 3
4 4 4 3 3 3 4 3 5 3 3 4 4 2 4 2 1 1 2 2 2 2 2 1 5 4 3 4 5 6 6 7 8 9 9 8 9 8 8 7 7 7 6 5
4 6 3 4 4 3 4 5 3 2 2 3 4 2 2 1 1 2 2 1 1 1 2 6 4 3 2 3 3 4 5 5 8 10 10 10 10 11 11 9 8 8 7 6
4 4 9 9 9 6 4 4 6 3 2 1 1 2 1 1 3 2 3 1 1 8 7 5 4 5 4 5 5 5 5 6 8 12 12 12 12 11 8 9 10 9 8 7

GFSNW_850_spd_111.txt.gz
Wind_Speed
9 7 6 4 2 1 2 4 2 7 5 4 3 1 3 4 7 5 7 6 9 10 14 7 5 5 6 21 13 14 4 4 6 12 4 1 11 21 11 11 13 7 5 5
9 9 8 6 4 3 3 3 3 4 3 2 1 3 3 5 2 4 3 3 2 10 8 7 8 8 14 13 14 9 7 3 5 5 3 5 6 4 5 15 0 14 9 5
12 9 9 8 6 5 4 3 2 1 6 3 2 1 3 3 7 5 3 4 5 11 9 8 10 11 9 27 19 14 1 4 8 2 3 1 1 3 6 5 12 16 8 7
13 11 11 10 8 7 7 3 1 2 1 2 1 1 3 4 4 3 3 2 8 10 6 13 4 13 19 13 9 12 1 2 6 14 7 1 3 2 3 2 3 13 17 13
12 17 14 12 11 10 9 5 4 3 2 3 2 2 2 2 3 3 4 4 13 13 9 12 19 17 16 10 9 12 8 3 3 3 13 6 1 0 5 3 2 4 6 4
16 19 17 16 15 14 7 9 6 3 2 2 2 3 2 1 7 6 10 10 15 11 11 18 32 30 29 19 16 9 6 7 9 5 6 7 5 2 1 2 4 3 5 4
16 17 17 19 18 16 14 11 9 5 3 4 4 3 2 8 8 10 19 19 7 8 31 34 25 15 19 15 13 12 7 9 4 6 10 3 1 5 6 2 11 7 6 10
19 21 17 19 18 17 15 14 12 7 2 6 6 10 8 9 12 11 13 16 8 23 15 5 8 4 2 3 1 6 12 3 4 3 6 4 2 4 2 1 2 1 11 11
17 22 21 21 20 18 17 17 17 8 3 5 9 6 6 4 3 4 4 14 16 7 1 2 3 3 4 4 9 6 5 5 3 4 4 2 1 6 6 3 1 2 12 11
15 17 22 22 21 19 17 16 17 16 5 12 10 4 3 2 2 3 5 9 8 8 3 3 2 1 5 4 6 6 3 1 6 6 4 6 5 12 9 2 3 8 18 12
17 22 22 23 21 19 19 20 15 21 7 19 11 8 13 10 8 4 5 8 1 3 4 3 3 3 3 4 7 6 3 3 1 2 3 6 18 10 4 4 3 6 13 8
18 19 23 22 19 19 18 18 15 16 16 10 10 12 16 23 25 15 8 5 5 4 2 1 3 3 2 5 4 2 3 1 3 4 3 5 12 9 10 6 3 2 9 10
20 21 20 23 22 18 18 17 14 14 17 20 21 24 12 17 23 23 9 6 5 3 2 2 2 5 2 2 3 4 4 8 4 3 1 2 13 9 11 10 14 12 16 14
17 16 21 19 24 19 18 17 17 16 3 4 10 11 12 12 12 18 26 27 10 5 0 3 3 3 3 3 7 9 5 7 5 5 5 7 20 20 12 13 15 14 16 15
18 16 18 19 23 18 15 14 17 16 10 3 10 26 18 12 19 21 18 21 23 16 5 3 3 3 3 3 4 1 5 4 4 3 14 4 11 20 13 13 12 13 16 12
20 16 19 21 20 19 15 9 18 20 17 4 3 6 13 10 4 11 16 20 19 11 6 5 5 11 3 2 3 4 7 9 14 5 7 16 10 22 18 15 11 14 15 9
20 15 21 21 19 21 19 5 4 13 22 4 4 4 3 2 10 10 10 16 11 10 5 5 5 5 3 2 4 5 9 9 12 18 3 12 22 14 16 12 13 11 12 9
22 16 21 19 15 14 21 16 3 17 20 5 3 4 4 6 4 5 9 10 10 9 5 3 4 2 3 4 2 5 10 7 14 12 14 11 8 11 14 12 10 10 10 9
17 17 20 16 16 13 19 19 21 16 9 4 4 2 3 4 4 4 6 8 4 6 3 4 6 3 4 2 4 6 10 8 12 4 8 11 11 11 12 11 10 9 9 7
20 22 12 7 11 15 9 10 9 12 10 9 4 6 3 7 7 4 3 6 4 3 4 7 4 2 10 8 7 6 7 10 12 8 10 12 12 12 11 10 8 7 6 6
23 12 10 10 18 17 10 6 5 7 4 8 7 19 4 9 4 4 4 2 4 3 3 5 3 2 4 7 7 8 8 9 9 8 6 7 9 10 10 9 8 7 6 5
22 10 11 21 9 5 4 4 5 5 5 6 5 6 10 6 7 3 5 3 3 4 8 3 1 2 5 5 6 7 6 8 9 9 9 10 10 9 7 7 7 5 3 3
19 10 7 6 4 4 6 6 3 3 4 8 6 4 5 7 8 4 3 5 5 10 4 2 2 7 5 5 5 6 7 8 8 9 10 10 10 9 8 9 8 5 3 1
6 7 6 5 4 4 4 2 2 2 1 10 11 4 4 4 4 2 3 1 1 2 3 2 2 6 5 5 7 8 9 10 11 11 11 11 11 11 10 8 7 5 3 3
3 3 4 3 4 3 4 6 7 4 5 4 4 2 3 2 3 1 1 0 2 2 2 2 5 4 3 4 6 7 7 9 10 12 11 11 10 9 9 8 8 6 5 5
4 4 2 5 5 2 3 5 4 2 2 3 3 1 2 2 0 1 2 1 1 2 2 5 3 3 4 5 5 5 5 7 9 12 11 10 9 9 9 9 6 6 5 6
2 2 9 9 9 5 3 2 2 2 1 1 1 2 2 2 2 2 2 2 2 8 8 7 6 5 4 4 4 3 3 4 6 8 8 8 8 7 5 4 7 6 6 6

GFSNW_850_spd_114.txt.gz
Wind_Speed
12 9 10 8 8 7 7 5 3 7 5 2 2 3 2 3 2 1 4 6 9 11 13 16 14 8 14 21 23 25 3 6 8 14 4 5 22 21 24 14 23 16 12 7
13 11 12 10 9 9 8 5 5 5 1 3 4 3 3 4 3 1 2 4 3 10 14 9 8 15 22 18 24 11 11 6 12 6 6 7 4 18 19 21 15 19 16 10
15 12 13 12 10 10 9 4 3 4 3 3 2 2 4 2 3 6 5 8 8 12 13 10 13 20 12 23 24 16 14 6 6 8 16 2 6 2 9 19 15 16 15 15
15 15 12 14 12 12 8 3 3 4 5 6 6 4 3 4 2 2 6 5 5 11 7 19 10 20 24 18 11 11 14 9 12 15 19 11 2 12 10 10 20 17 16 15
13 16 15 15 15 14 8 5 4 4 6 7 10 5 4 5 3 3 5 9 9 14 15 15 20 23 21 13 13 16 13 8 16 18 9 12 3 4 3 12 14 16 12 19
15 15 17 18 18 18 6 7 7 4 7 7 6 6 6 3 2 5 10 8 14 15 16 21 32 33 34 24 21 18 9 7 11 7 14 5 4 9 2 3 3 4 10 3
17 17 19 22 21 19 12 9 8 5 4 6 7 4 6 7 8 11 14 15 14 12 24 34 28 23 21 16 12 12 8 10 5 10 11 3 4 10 3 5 4 5 5 6
17 16 19 23 22 20 16 13 9 6 4 7 8 9 10 11 12 13 15 15 9 17 18 11 10 6 4 2 1 3 9 7 5 5 8 2 5 9 9 8 6 11 4 9
17 19 21 21 22 21 18 13 13 6 3 6 10 8 10 9 8 7 7 8 10 6 4 4 6 4 6 3 6 3 2 6 5 6 5 3 5 15 19 4 3 6 6 10
20 19 20 22 23 22 20 11 16 10 7 9 6 6 4 4 4 5 8 6 5 3 3 5 4 3 7 4 7 8 7 3 4 5 3 6 14 20 18 4 8 14 10 16
22 18 18 25 25 24 22 13 16 14 8 11 8 10 13 12 10 7 2 6 1 3 3 3 3 3 4 5 8 8 5 5 2 4 3 4 23 11 10 13 20 10 14 9
23 20 19 23 24 24 21 11 16 16 12 7 9 11 18 20 15 12 5 6 5 4 4 2 3 6 4 7 4 1 3 6 6 5 6 14 17 14 17 17 6 9 7 3
24 22 22 24 24 23 21 13 13 15 10 14 17 16 13 16 21 17 10 6 7 3 2 3 2 4 4 5 5 6 4 11 3 7 4 10 16 16 16 15 14 11 13 12
24 23 22 24 23 19 20 17 16 15 4 4 5 9 14 9 9 17 23 19 5 3 4 4 4 4 5 6 9 10 7 6 11 10 9 14 19 21 14 13 14 15 15 16
26 23 23 22 24 22 17 16 14 13 9 3 7 16 14 14 15 14 17 17 16 13 4 3 5 8 7 7 5 5 3 3 4 3 12 3 11 16 12 11 13 12 12 15
27 23 23 24 23 23 18 9 16 17 13 4 3 5 6 5 7 14 16 15 12 8 5 6 6 11 6 3 3 8 7 5 8 6 4 14 4 18 14 15 13 12 12 13
27 23 22 22 25 26 17 5 5 15 16 3 4 4 2 5 7 8 10 13 9 8 6 7 11 11 5 4 10 2 5 6 8 12 9 5 15 10 12 12 11 10 11 11
28 20 22 24 22 19 19 10 6 12 14 4 3 3 3 7 5 6 8 8 10 9 7 5 8 6 6 4 5 5 7 3 10 8 9 7 7 10 9 8 8 8 8 8
25 24 25 21 19 12 11 14 10 11 4 3 4 3 1 6 4 4 8 8 4 7 5 5 5 4 5 3 3 5 8 6 8 2 7 7 8 9 10 9 8 7 7 6
26 27 11 5 11 9 11 8 7 8 7 7 4 7 3 6 6 6 4 8 4 4 7 6 4 4 7 6 6 5 6 7 8 4 7 9 9 10 9 8 7 7 6 6
24 12 10 9 19 13 8 7 8 8 5 8 8 17 11 7 5 4 5 2 2 3 4 4 4 3 4 4 5 5 6 6 7 5 4 6 6 7 7 7 7 5 4 4
19 12 16 19 10 8 6 6 5 6 5 7 5 6 11 7 8 7 4 3 4 4 9 3 2 3 4 3 5 6 6 6 6 6 5 6 6 6 5 4 4 4 3 3
17 7 5 7 6 5 5 8 4 4 6 8 7 4 6 6 7 4 3 5 4 7 4 1 3 8 5 4 3 4 6 7 6 6 6 6 6 6 5 5 3 3 3 2
6 7 6 4 4 5 3 5 3 4 4 10 10 6 4 5 4 2 4 1 1 4 5 2 3 6 5 4 4 4 5 7 7 8 8 7 6 7 7 7 6 4 2 1
4 2 2 3 3 4 5 7 6 4 6 8 5 2 5 4 3 3 3 3 2 3 3 3 7 5 4 3 3 3 4 5 7 8 8 7 7 7 7 7 7 7 6 5
3 4 2 4 4 4 4 6 6 5 4 5 2 2 3 4 2 3 1 2 1 3 3 7 6 5 4 2 2 2 2 3 6 7 7 7 7 7 7 7 6 6 5 5
2 2 4 3 5 5 4 2 2 2 3 2 3 4 1 1 3 3 2 2 3 9 9 6 6 5 4 3 2 1 2 3 5 6 6 7 7 7 5 5 5 5 5 5

GFSNW_850_spd_117.txt.gz
Wind_Speed
14 12 11 12 12 12 11 5 3 5 1 5 3 3 3 1 4 4 4 5 10 9 10 15 18 15 11 23 21 22 5 8 14 31 14 16 21 21 23 11 21 18 16 14
16 13 13 13 14 14 6 5 3 3 1 3 5 4 5 4 6 4 3 5 5 9 12 14 12 17 20 14 21 14 10 7 13 20 8 18 12 16 19 19 17 21 16 15
16 16 15 14 14 14 8 5 3 4 4 5 6 4 6 6 6 7 9 9 9 9 11 14 12 21 13 23 21 12 12 11 17 15 19 14 16 23 15 16 15 19 18 18
17 17 15 15 15 15 7 3 4 5 4 7 8 7 5 8 5 7 7 9 11 8 11 17 17 20 22 22 4 10 14 17 17 21 24 19 18 13 13 12 15 17 18 19
17 19 16 15 17 16 7 5 4 5 3 7 9 6 6 9 7 6 10 10 12 9 14 17 21 22 20 24 14 17 15 12 18 22 13 17 19 8 13 15 18 19 15 21
19 20 18 16 19 18 8 8 5 6 7 9 8 8 8 6 5 8 12 10 10 13 16 21 27 31 35 27 22 19 9 10 15 15 16 19 6 12 5 7 10 13 16 12
26 21 19 19 20 20 8 8 6 5 5 8 9 4 6 9 11 11 10 12 13 18 22 27 29 31 30 24 15 13 10 13 11 12 14 3 8 12 8 10 4 7 7 19
29 23 21 20 22 23 11 7 8 5 6 7 8 7 8 10 11 13 14 14 14 13 19 14 13 13 9 11 12 7 7 8 6 6 11 2 4 14 17 14 11 14 13 5
30 24 22 21 24 24 16 9 9 6 5 5 9 9 11 9 8 8 11 7 9 12 9 8 9 10 13 4 6 2 8 8 6 10 7 4 12 20 21 18 2 22 19 8
29 25 23 22 22 23 20 10 13 7 4 9 4 7 6 8 7 6 6 3 8 7 6 9 10 7 4 4 7 9 9 7 7 7 4 4 19 21 29 3 10 21 15 15
29 25 23 22 22 24 23 14 13 12 8 7 6 9 8 8 8 6 3 5 6 6 6 5 4 4 4 5 8 5 5 7 3 6 4 3 29 13 10 14 28 18 5 13
30 26 23 23 24 24 23 13 12 14 8 5 4 9 14 15 14 9 4 7 1 4 4 3 4 6 5 11 5 7 2 4 5 6 11 16 19 18 20 18 20 18 19 8
31 28 24 22 25 26 25 13 13 10 5 12 17 17 15 17 17 13 14 10 6 4 3 5 3 4 5 6 5 8 10 9 4 14 6 13 19 24 20 18 17 14 20 16
35 30 25 22 24 25 23 18 12 10 4 4 4 5 11 9 12 15 19 16 5 4 5 6 4 4 8 5 10 9 6 9 11 11 10 16 19 24 22 16 14 15 17 16
34 29 26 25 25 24 20 16 13 12 9 3 6 6 13 14 13 13 15 16 15 13 6 4 5 12 8 9 7 6 4 1 4 5 11 10 10 18 19 17 15 11 12 12
34 30 27 27 26 23 19 10 17 15 10 3 3 3 6 5 9 16 13 15 13 8 5 5 7 15 9 4 4 6 6 5 1 3 14 7 15 7 16 14 14 13 12 12
32 29 27 25 23 27 19 4 4 16 12 3 4 4 6 8 10 8 10 11 7 8 5 9 16 18 7 3 7 10 7 3 3 7 11 4 11 11 15 13 11 12 12 12
32 29 25 25 22 21 17 9 4 15 10 4 3 3 7 12 6 5 9 7 8 8 7 7 10 11 7 4 8 8 5 2 4 5 7 7 11 10 12 11 12 8 10 10
30 26 25 20 22 14 12 9 10 19 7 3 5 3 4 9 7 5 8 8 5 8 6 10 6 6 5 4 5 4 4 3 6 7 5 9 9 11 11 11 11 10 10 10
30 29 22 6 18 15 14 8 7 4 5 5 4 11 3 9 9 9 4 8 4 4 8 8 5 8 9 5 5 4 3 5 7 7 5 9 8 9 10 10 10 9 9 9
32 11 6 14 21 14 8 5 6 8 5 8 9 17 9 7 5 4 7 2 3 3 5 5 4 3 5 4 4 4 4 5 6 5 5 6 6 8 8 8 9 9 9 8
18 15 17 19 7 5 5 5 5 6 5 11 6 8 12 8 7 5 4 3 3 5 9 3 2 4 5 4 4 4 4 5 5 6 6 6 7 8 7 7 7 7 7 7
22 8 7 6 7 7 6 10 4 5 6 8 10 4 5 6 8 4 2 5 5 6 4 1 4 10 6 5 3 3 5 5 5 6 7 7 8 9 8 8 9 8 8 6
7 6 6 6 6 5 4 6 7 4 7 11 12 7 5 6 5 3 4 4 3 3 4 3 4 9 7 4 3 2 3 4 5 6 6 7 6 7 8 7 8 7 7 7
3 3 5 5 3 6 6 7 7 5 8 12 7 4 5 4 3 3 4 3 2 2 3 2 10 8 5 3 2 2 2 4 5 6 7 8 7 6 7 7 7 6 5 4
2 3 2 2 5 5 5 8 7 5 5 5 2 2 3 5 3 3 1 4 3 3 4 9 8 6 5 3 2 2 2 3 4 6 6 7 7 6 6 8 7 7 6 6
3 1 3 4 7 7 5 4 3 2 3 3 2 4 1 1 2 2 3 3 4 9 10 9 8 6 4 4 3 3 3 3 4 5 5 6 7 8 6 6 7 6 6 7

GFSNW_850_spd_123.txt.gz
Wind_Speed
16 17 13 12 15 17 15 5 2 3 9 3 4 3 3 3 11 5 1 1 1 4 3 2 4 4 4 4 3 6 0 4 8 23 22 11 3 13 6 5 4 7 5 12
18 16 14 13 17 20 15 4 5 3 9 3 2 4 4 2 2 5 5 4 4 3 2 4 3 6 14 20 6 1 3 4 7 15 3 1 16 21 18 13 7 6 7 8
17 12 12 17 20 19 12 2 3 3 4 3 2 2 4 5 2 4 4 1 6 4 5 6 5 9 5 20 16 6 1 4 2 8 16 18 23 28 24 12 5 6 13 12
15 13 11 18 20 18 7 2 1 5 2 2 3 3 2 4 4 5 1 2 7 6 4 5 6 8 10 17 19 11 4 3 11 16 19 22 23 18 20 19 15 8 9 9
13 15 13 19 20 18 5 3 2 3 1 3 6 3 2 6 5 6 4 3 6 6 4 4 6 8 7 5 10 3 7 5 11 21 17 19 19 9 18 14 19 13 15 4
12 14 17 18 20 20 4 4 4 3 2 2 4 4 4 4 2 7 6 5 5 6 6 16 18 21 21 17 16 21 5 4 6 16 16 20 2 10 16 5 20 17 15 15
17 16 18 16 20 22 6 6 2 1 3 2 5 6 1 2 2 2 5 8 4 7 13 18 23 24 26 27 23 21 16 13 6 9 12 4 6 12 18 12 20 15 17 18
19 16 18 16 19 23 9 7 6 4 1 4 7 8 5 2 5 3 3 12 12 4 9 4 6 5 4 5 5 8 4 5 3 2 5 11 17 17 19 12 8 20 17 17
21 17 18 16 16 19 15 6 5 2 3 3 10 10 9 3 1 4 15 17 5 3 1 1 2 3 4 4 8 4 3 10 4 2 5 1 9 21 36 15 4 25 22 16
24 21 18 17 16 17 17 9 6 3 3 4 9 5 4 2 2 1 4 3 4 2 2 1 3 4 4 3 6 6 5 4 2 3 2 3 17 19 23 9 7 28 26 15
25 23 19 16 19 17 19 15 9 6 1 6 6 5 7 8 7 3 6 4 4 3 1 2 3 2 3 3 3 3 3 5 3 4 4 4 28 7 7 9 18 23 26 24
24 23 20 16 20 18 18 20 12 9 6 5 5 8 6 4 3 4 3 2 2 2 1 2 3 3 3 3 2 4 2 3 1 3 3 3 9 10 15 18 16 22 22 19
27 23 21 20 20 19 23 21 9 10 5 12 10 15 12 14 13 8 2 1 4 5 3 1 2 1 1 1 2 0 1 4 2 2 5 3 11 12 16 17 17 15 16 17
25 23 20 24 21 21 23 21 12 10 2 1 4 6 8 8 10 12 14 14 8 5 5 1 1 1 4 2 4 2 3 2 2 2 4 5 7 14 15 14 16 17 14 16
25 25 27 25 22 21 19 18 13 10 1 3 7 11 7 7 9 10 10 10 8 7 2 1 2 4 2 5 2 3 5 5 3 4 2 1 3 11 15 11 14 12 14 13
25 26 31 28 23 21 16 7 18 13 9 1 2 3 5 7 15 12 13 12 11 10 2 3 5 11 5 2 3 3 3 4 4 3 0 1 4 5 12 11 13 5 11 13
34 31 33 28 22 22 11 5 4 15 13 2 4 4 1 11 14 16 14 12 9 8 4 5 7 13 7 2 3 7 8 4 4 3 4 1 7 6 7 10 9 10 9 10
20 33 32 24 19 24 10 4 5 18 12 4 0 3 1 10 6 3 7 5 4 5 5 4 5 5 8 3 4 13 11 6 4 2 1 4 4 7 9 7 7 7 10 9
25 32 27 21 22 15 12 8 11 12 4 2 4 2 2 9 6 5 6 5 2 6 5 5 4 3 3 4 12 13 10 6 5 5 4 6 6 4 8 8 6 4 7 6
34 33 15 6 14 11 15 9 4 4 5 5 4 5 1 4 5 7 7 6 3 2 6 8 3 2 10 14 15 12 8 6 4 3 6 4 3 4 7 5 5 5 5 6
35 10 6 16 20 12 5 4 4 6 3 7 9 16 4 3 2 3 9 3 2 3 3 6 3 2 4 11 13 10 9 6 7 6 2 2 3 2 3 6 6 5 6 4
17 18 27 25 6 4 4 4 3 4 5 7 8 14 21 6 9 5 6 3 1 5 6 3 3 3 14 13 12 9 8 8 5 1 2 4 4 2 2 3 5 5 8 2
32 12 7 7 6 2 8 7 3 3 4 7 11 2 8 9 8 2 2 2 4 5 1 2 2 13 13 13 9 5 3 2 1 2 2 3 5 5 4 4 5 3 6 4
6 6 6 4 4 5 5 4 5 9 8 12 15 6 4 4 2 2 3 4 2 3 1 2 3 14 12 9 6 1 3 2 4 5 5 3 4 7 7 5 5 5 5 6
4 5 5 5 4 2 1 4 5 5 10 16 8 3 3 1 2 3 2 2 3 3 2 2 13 11 9 8 4 4 5 4 4 6 8 7 5 9 12 11 8 6 6 5
3 3 2 8 5 3 2 9 8 8 12 15 5 3 3 3 3 3 5 1 3 2 3 15 14 11 7 5 3 3 3 2 5 4 7 11 12 11 10 13 12 12 9 10
3 3 4 6 5 7 5 5 4 3 6 1 2 3 6 1 2 2 3 2 2 14 17 15 10 7 5 5 6 6 4 5 5 9 10 8 6 8 10 9 9 9 10 12

GFSNW_850_spd_129.txt.gz
Wind_Speed
42 41 38 40 42 41 39 20 3 24 23 5 5 4 5 9 4 4 3 3 5 5 5 4 4 4 3 3 2 2 1 3 2 7 10 5 4 7 9 4 8 10 8 14
35 36 37 43 43 45 27 10 9 15 21 4 2 3 4 5 5 3 3 3 3 3 4 5 3 4 8 9 3 3 2 1 3 4 6 4 3 12 12 14 8 8 6 6
32 36 35 39 41 35 21 10 4 5 9 2 5 5 4 5 6 3 7 5 6 4 3 3 4 2 2 3 3 8 4 3 7 6 9 4 6 15 16 11 3 10 7 22
27 28 35 38 40 30 17 6 4 8 4 3 3 3 5 10 4 3 5 3 5 5 3 3 3 3 5 3 3 3 3 3 5 7 12 14 15 14 11 10 7 5 19 19
26 24 29 34 37 27 6 7 7 6 6 14 5 1 3 6 4 4 3 6 7 6 4 3 3 4 2 4 3 3 0 3 1 4 10 11 9 5 10 7 6 12 17 14
20 22 27 32 29 15 4 10 20 16 2 4 5 4 5 6 7 10 9 14 7 7 6 7 6 10 11 9 6 4 3 3 1 4 5 10 4 4 8 9 8 9 9 16
19 22 26 29 23 13 18 22 21 6 2 3 4 6 7 9 4 7 6 12 5 6 6 1 3 7 15 14 12 13 5 3 2 4 4 2 3 2 7 12 2 12 11 16
19 18 26 27 16 16 20 23 12 7 3 5 4 11 10 16 17 6 7 5 8 8 5 3 3 3 2 2 4 8 9 3 1 2 2 2 2 1 6 5 3 13 11 14
19 21 24 28 21 19 19 16 13 15 9 2 1 5 12 5 4 2 4 8 13 7 4 3 2 2 1 2 1 3 5 1 3 1 2 4 4 9 15 7 6 16 20 15
22 22 23 28 21 17 16 16 15 12 10 5 4 4 5 7 5 4 4 5 4 5 2 2 2 3 2 2 1 1 2 1 1 2 3 4 3 17 16 3 5 21 17 18
22 21 20 24 22 17 13 15 13 12 7 8 9 8 8 9 8 4 5 4 3 3 3 2 2 2 1 1 1 1 2 1 1 1 1 5 8 4 4 6 12 15 18 18
22 20 19 19 22 16 13 13 10 13 9 9 10 10 10 10 10 15 4 4 3 4 3 1 2 1 2 3 2 3 1 4 3 5 4 1 2 0 6 9 10 12 14 14
25 22 18 16 16 15 12 12 9 9 10 8 6 5 7 9 8 8 5 3 4 5 5 5 2 1 3 2 3 1 2 3 2 0 3 4 5 4 8 8 9 10 10 11
25 22 19 15 15 13 12 15 10 8 8 5 3 7 7 9 8 6 4 8 11 10 6 3 2 2 5 2 2 3 5 2 4 4 1 4 8 7 9 9 9 10 8 9
29 23 19 14 14 15 15 15 12 9 4 4 5 7 8 7 9 10 7 8 9 7 3 2 2 2 2 0 2 3 6 6 4 5 8 4 4 4 7 8 10 8 9 9
31 26 21 16 17 15 20 6 7 9 6 4 2 3 7 10 9 7 8 6 7 5 4 3 3 3 2 2 2 4 4 5 3 3 7 5 4 4 4 5 5 8 10 10
30 26 22 21 17 18 6 5 10 11 6 4 3 3 3 9 13 9 8 9 4 3 3 4 3 3 7 2 3 4 6 5 5 6 7 6 6 4 7 6 5 8 9 9
27 27 26 22 21 15 9 7 16 14 6 4 3 1 3 7 6 5 6 6 5 4 3 2 3 2 4 4 10 11 9 11 7 3 6 3 6 7 6 5 7 10 10 8
31 29 29 24 16 7 11 12 18 13 2 3 2 3 3 5 4 5 4 5 1 2 3 4 4 2 4 2 4 7 12 7 8 8 8 7 5 6 6 7 8 7 9 8
43 39 13 7 12 24 21 7 4 5 2 2 2 4 1 6 3 2 4 1 2 1 4 5 2 3 6 5 9 9 9 9 6 3 1 3 3 5 7 7 7 9 8 8
37 8 5 29 25 7 4 4 2 1 1 5 5 13 4 7 3 3 4 3 1 1 3 3 3 2 5 10 11 8 4 1 3 3 2 2 4 5 5 7 6 7 7 7
20 22 34 23 5 4 4 2 0 2 3 6 7 7 8 6 5 3 4 3 1 3 6 2 3 0 13 12 9 4 1 1 1 1 1 2 3 3 4 4 5 5 5 4
41 14 6 7 2 4 6 7 4 2 5 9 9 2 9 5 5 3 3 3 4 0 1 3 2 10 12 10 7 5 2 1 2 2 2 2 2 2 2 2 2 3 3 3
5 5 5 4 4 4 4 4 5 7 5 15 17 7 5 5 3 2 3 3 2 2 1 4 4 16 14 10 6 3 2 2 1 1 2 1 3 4 4 3 3 2 1 1
4 5 4 4 3 3 5 9 4 5 4 17 11 4 2 1 3 2 2 2 3 4 3 3 14 18 14 10 6 4 2 1 0 1 1 2 4 5 7 7 6 7 5 2
3 4 5 4 5 3 7 6 4 5 15 16 4 2 2 2 3 3 5 5 5 3 2 11 20 17 13 9 6 4 3 1 1 4 6 6 6 6 8 9 8 8 9 8
4 3 8 8 7 7 7 8 8 12 11 3 3 5 6 2 2 4 2 4 3 7 11 17 17 14 11 8 7 6 3 3 5 5 3 1 3 3 3 4 3 5 5 8

GFSNW_850_spd_132.txt.gz
Wind_Speed
82 81 76 69 65 59 53 24 6 36 33 9 5 4 5 7 6 6 4 4 5 3 4 4 2 5 4 4 7 3 1 4 1 6 6 5 4 4 3 1 3 5 5 7
74 72 68 65 63 65 49 21 15 29 32 6 9 4 5 4 4 3 4 3 3 3 4 5 4 5 3 5 3 6 5 1 2 5 4 3 1 2 0 6 7 3 5 7
54 58 60 61 59 50 36 17 5 11 13 3 12 6 5 5 8 5 6 4 5 5 3 4 5 4 2 3 5 9 5 3 6 6 6 3 4 6 5 2 4 5 7 20
34 38 49 59 55 38 30 8 5 13 9 4 4 5 6 11 5 4 7 3 3 7 4 3 4 3 3 3 8 4 4 3 4 5 8 5 8 6 5 0 8 3 11 18
33 40 48 50 31 28 16 8 10 7 22 16 6 2 5 9 6 4 4 7 7 5 5 5 6 6 2 3 3 3 2 2 3 3 9 6 3 2 4 5 3 6 14 11
37 38 44 43 26 21 11 9 18 17 4 4 4 4 5 8 8 8 8 16 6 7 6 11 12 5 6 7 6 3 3 2 2 3 2 3 1 4 5 3 2 4 4 10
28 30 42 28 25 16 14 20 18 14 3 3 4 4 6 11 4 8 11 17 7 7 13 10 6 3 3 4 4 7 4 3 1 3 4 1 3 5 2 4 3 5 9 13
23 29 29 28 22 13 20 18 22 8 4 5 6 10 11 19 21 10 12 6 14 18 8 3 3 2 2 1 4 6 6 3 1 1 1 1 3 2 2 1 1 8 11 13
24 29 28 20 16 16 17 19 19 22 8 1 6 8 17 12 5 4 6 17 17 6 3 2 3 3 4 3 3 3 5 2 1 1 1 4 4 4 1 5 3 11 14 16
25 30 26 21 19 16 13 18 20 20 12 5 6 5 6 9 8 5 5 7 3 3 2 2 2 2 1 4 6 4 3 3 4 2 3 5 1 8 2 2 3 13 14 18
23 27 24 20 16 13 11 15 15 16 11 8 8 9 10 11 11 5 9 5 1 3 3 2 2 2 1 2 1 3 4 4 3 2 1 5 2 2 2 1 7 9 12 16
21 23 25 20 18 15 11 18 17 16 14 14 18 17 13 12 10 18 7 4 3 4 4 1 3 2 2 3 2 3 2 4 4 5 4 2 3 6 2 1 5 7 10 13
19 18 22 20 17 15 12 20 21 20 24 16 11 13 16 15 13 14 7 4 4 5 5 6 2 3 2 3 3 1 2 3 1 1 1 4 7 4 2 4 2 7 9 9
24 21 20 18 15 12 10 16 17 17 11 6 6 9 9 9 7 6 9 15 12 13 8 5 2 3 2 2 2 3 4 2 3 4 4 1 7 7 5 4 3 6 8 7
23 20 18 17 16 15 14 15 15 13 6 6 8 14 9 9 7 11 11 11 15 8 4 3 1 3 3 1 2 2 6 6 4 5 4 2 1 5 3 3 5 6 9 12
21 18 15 15 15 15 18 8 9 15 25 10 3 7 8 14 12 12 10 8 7 5 4 3 2 2 3 2 3 4 8 9 9 2 5 3 2 3 3 3 5 6 9 12
23 19 16 16 15 17 7 5 13 10 9 6 3 3 5 13 14 9 9 9 6 4 4 2 3 3 5 2 3 4 7 5 6 4 6 4 6 4 5 5 5 7 11 13
26 22 21 19 17 13 13 15 15 10 8 6 3 2 4 7 6 4 4 5 4 2 3 3 3 3 1 3 6 7 4 7 5 3 3 3 4 5 4 4 7 10 12 12
27 27 26 20 12 6 11 17 12 11 7 5 3 4 3 6 6 5 3 3 2 1 2 2 4 2 4 1 2 7 11 5 6 4 2 3 3 4 7 9 11 9 10 11
33 33 9 6 11 23 18 6 3 4 5 4 3 4 3 6 3 2 3 2 2 1 3 5 2 3 5 3 6 9 9 9 8 6 2 4 6 7 9 9 8 9 10 9
28 6 6 27 20 4 4 4 3 2 3 2 3 3 5 3 3 2 2 2 1 1 3 3 2 3 4 9 9 8 7 5 2 1 2 2 3 4 6 8 8 9 8 8
13 21 27 18 3 4 5 1 1 1 2 4 6 5 5 5 4 4 3 3 1 3 7 2 3 2 10 12 8 6 4 2 2 1 1 2 3 4 5 6 7 7 7 7
39 13 5 4 2 5 4 5 0 1 5 9 7 1 5 4 3 4 3 4 4 1 1 3 3 11 14 13 10 7 4 2 1 1 1 2 3 3 4 4 5 6 6 7
6 6 4 3 4 4 4 4 4 5 6 18 17 7 4 4 2 3 3 3 2 1 0 5 3 18 18 14 9 6 3 2 1 0 1 2 3 4 4 3 4 5 4 5
4 5 3 4 2 3 8 6 7 7 12 23 9 5 3 1 3 2 3 3 3 5 4 3 11 20 19 14 9 5 3 2 1 2 3 4 6 7 8 7 8 9 8 7
4 4 4 7 7 5 6 6 5 5 18 17 4 3 2 1 4 3 5 6 5 4 3 8 19 19 16 12 8 6 4 3 5 6 6 6 6 7 7 8 8 9 9 11
5 3 8 6 11 10 10 9 8 12 15 3 4 4 6 1 2 3 4 5 3 8 10 13 18 17 14 10 8 7 5 6 7 7 5 5 5 4 4 5 4 6 5 6

GFSNW_850_spd_138.txt.gz
Wind_Speed
59 59 55 57 61 52 41 39 11 36 57 10 7 6 8 9 17 20 7 9 6 18 23 14 10 12 9 18 19 12 4 2 6 6 5 3 4 7 5 4 5 6 7 11
57 56 62 68 63 58 63 37 10 53 56 10 11 10 9 12 9 11 12 7 8 15 16 9 12 12 5 19 16 13 9 6 6 6 5 5 10 11 6 3 4 11 9 6
59 66 69 62 58 60 67 26 6 16 28 16 22 18 18 14 13 4 3 6 14 14 16 9 16 12 7 15 12 9 6 4 2 5 4 7 9 12 12 7 5 10 12 17
60 58 50 46 55 88 69 21 8 23 15 14 22 25 22 23 12 8 7 3 13 13 8 15 11 13 16 10 13 8 3 4 4 5 4 6 8 10 11 11 13 6 12 16
13 26 42 47 83 94 50 19 13 31 20 27 21 18 20 27 16 13 11 10 14 14 15 8 19 21 15 11 9 10 4 4 6 5 8 10 12 11 11 14 13 15 16 14
37 44 52 73 75 69 39 29 23 36 24 20 19 19 22 23 23 8 17 17 12 11 9 13 22 15 17 16 16 10 8 6 7 3 6 5 8 17 14 4 7 7 6 6
24 36 32 36 42 38 35 32 40 14 15 19 22 27 26 27 23 10 19 29 10 13 32 33 26 22 18 16 10 11 9 9 5 5 6 7 3 3 10 8 7 6 7 7
23 20 30 28 22 30 46 35 28 12 13 15 18 24 19 21 22 15 16 2 26 34 23 12 10 5 6 5 6 7 6 7 4 4 10 2 4 8 6 4 1 5 5 7
25 25 32 33 32 37 40 27 23 30 14 8 28 20 26 17 11 7 7 29 28 12 4 4 7 6 10 8 7 6 6 4 5 5 4 5 5 8 2 5 4 6 2 6
19 23 28 28 25 26 24 27 31 31 14 14 32 17 21 26 21 9 19 15 6 6 4 6 7 5 7 10 13 9 7 6 9 7 6 2 5 5 7 5 5 3 1 4
23 25 23 22 28 28 31 34 30 27 20 15 12 15 16 23 20 12 21 10 3 5 6 5 4 4 4 6 10 13 8 9 6 7 8 8 10 8 4 5 5 3 2 4
24 28 23 19 18 24 35 28 32 35 27 19 27 24 21 15 26 35 10 8 10 5 5 3 3 3 4 9 7 2 6 2 4 6 1 10 8 1 5 3 3 1 2 4
22 21 16 19 22 33 33 40 40 47 35 29 21 16 20 18 29 23 10 5 6 5 7 6 3 3 3 5 4 8 4 5 3 6 5 5 5 6 5 4 3 1 2 3
24 20 21 25 30 32 34 39 30 29 19 7 17 19 23 16 13 11 13 23 18 18 11 5 3 3 1 3 4 3 2 9 5 2 6 5 5 6 6 4 2 2 1 3
19 20 21 22 24 29 29 30 31 25 17 8 17 26 24 21 21 24 23 24 21 15 5 3 3 4 4 4 3 4 6 4 4 2 5 3 3 8 6 4 3 2 1 3
19 19 21 20 24 27 29 20 26 29 39 12 5 8 17 19 23 24 22 19 13 9 6 5 5 3 1 3 3 4 6 5 5 5 6 8 10 9 6 5 5 2 2 4
21 19 20 18 16 13 14 10 19 25 20 11 5 5 6 12 14 15 16 15 11 7 4 3 4 5 2 2 3 7 8 8 9 10 11 8 7 5 7 6 3 0 3 4
23 22 20 16 17 30 30 24 19 20 19 10 4 4 6 6 9 6 7 7 6 7 4 3 4 6 2 2 7 8 9 10 10 8 5 7 9 9 6 4 2 1 3 4
26 24 27 26 26 18 21 25 21 16 10 5 3 7 5 5 6 9 5 4 3 2 2 3 5 3 3 4 8 8 9 7 11 11 10 10 9 7 5 2 1 1 2 3
26 15 8 7 9 17 15 9 5 6 7 6 4 5 5 9 6 3 4 3 2 2 2 6 2 2 6 6 8 9 9 12 13 13 9 8 6 4 2 2 2 2 2 2
7 6 7 16 9 5 5 4 5 3 4 5 5 13 11 4 4 3 2 3 2 2 4 3 3 2 6 10 11 10 10 10 9 7 7 6 6 5 5 4 3 3 3 2
5 17 15 5 4 5 5 3 2 4 3 4 9 10 10 5 3 4 3 2 1 3 7 3 2 3 13 14 12 11 10 10 9 8 7 7 7 6 6 5 3 2 2 3
21 5 4 4 4 4 3 3 3 4 5 7 14 7 4 4 5 5 2 2 2 9 3 2 1 12 15 15 14 13 11 10 9 9 8 7 6 6 5 5 5 6 5 6
4 3 4 4 3 3 3 4 5 6 15 22 17 7 4 4 3 2 3 2 3 4 3 3 4 16 17 15 14 14 12 10 10 9 8 8 8 9 9 9 9 7 7 6
5 3 4 3 4 6 6 8 10 13 20 15 12 7 4 2 3 1 3 4 4 3 2 2 12 18 19 17 15 14 12 11 10 10 10 10 11 11 12 12 11 10 9 8
5 5 4 5 7 5 5 10 15 15 16 11 5 3 2 2 3 3 3 3 3 2 3 9 17 19 18 18 16 14 13 12 12 13 13 12 12 12 11 10 9 9 8 8
3 4 7 4 7 8 7 11 12 15 7 2 3 3 2 3 2 3 3 2 2 5 9 12 16 20 21 20 17 15 14 15 15 15 14 13 12 10 8 7 6 6 5 5